Flag for Ukraine Weather past 2 weeks in Luhansk, Ukraine

Now
64 °F

Clear.


Feels Like: 64 °F
Forecast: 75 / 96 °F
Wind: 1 mph from Southeast

Location: Rostov-Na-Donu

Current Time: Sep 2, 2015 at 3:27:22 AM

Latest Report: Sep 2, 2015 at 3:00 AM


Visibility: N/A

Pressure: 29.95 "Hg

Humidity: 83%

Dew point: 59 °F

Location of LuhanskLocation

Historic Weather in Luhansk — Graph

°F

Luhansk temperature yesterday

Maximum temperature yesterday: 86 °F (at 3:30 PM)
Minimum temperature yesterday: 64 °F (at 5:30 AM)
Average temperature yesterday: 75 °F

Past Weeks' High & Low Weather Summary

 TemperatureHumidityPressure
High88 °F (Aug 28, 2:00 PM)94% (Aug 19, 2:00 AM)30.18 "Hg (Aug 19, 2:00 AM)
Low55 °F (Aug 21, 4:00 AM)15% (Aug 29, 4:30 PM)29.83 "Hg (Aug 18, 12:00 PM)
Average71 °F42%30.04 "Hg
* Reported Aug 18 2:00 AM — Sep 2 2:00 AM, Luhansk, Weather by CustomWeather, © 2015

Note: Actual official high and low records may vary slightly from our data, if they occured in-between our weather recording intervals... More about our weather records

Advertising

Luhansk weather history for previous 24 hours

 ConditionsComfort  
Time TempWeatherWind HumidityBarometerVisibility
2:00 AM
Wed, Sep 2
66 °FClear.1 mph83%29.95 "HgN/A
1:30 AM68 °FClear.No wind83%29.95 "HgN/A
12:30 AM68 °FClear.No wind83%29.98 "HgN/A
12:00 AM70 °FClear.No wind78%29.98 "HgN/A
11:30 PM
Tue, Sep 1
70 °FClear.No wind73%29.98 "HgN/A
11:00 PM73 °FClear.3 mph69%29.98 "HgN/A
10:30 PM72 °FClear.3 mph73%29.98 "HgN/A
10:00 PM73 °FClear.3 mph69%29.98 "HgN/A
9:30 PM73 °FClear.3 mph69%29.98 "HgN/A
9:00 PM73 °FClear.6 mph69%29.98 "HgN/A
8:30 PM73 °FClear.6 mph69%29.98 "HgN/A
8:00 PM75 °FClear.6 mph61%29.98 "HgN/A
7:30 PM75 °FClear.6 mph50%29.98 "HgN/A
7:00 PM79 °FPassing clouds.3 mph39%29.98 "HgN/A
6:00 PM82 °FPassing clouds.8 mph26%29.98 "HgN/A
5:30 PM82 °FSunny.10 mph26%29.98 "Hg10 mi
5:00 PM82 °FPartly sunny.8 mph26%29.98 "HgN/A
4:30 PM84 °FPassing clouds.8 mph25%29.98 "HgN/A
4:00 PM84 °FPassing clouds.6 mph25%29.98 "HgN/A
3:30 PM86 °FPassing clouds.6 mph25%29.98 "HgN/A
3:00 PM84 °FPassing clouds.3 mph22%29.98 "HgN/A
2:30 PM84 °FPassing clouds.6 mph22%29.98 "HgN/A
2:00 PM84 °FPassing clouds.6 mph22%29.98 "HgN/A
1:30 PM82 °FPassing clouds.8 mph25%30.01 "HgN/A
1:00 PM82 °FPassing clouds.8 mph25%30.01 "HgN/A
12:30 PM82 °FPassing clouds.8 mph25%30.01 "HgN/A
12:00 PM81 °FPassing clouds.6 mph26%30.01 "HgN/A
11:30 AM81 °FSunny.3 mph26%30.01 "Hg10 mi
11:00 AM81 °FPassing clouds.3 mph26%30.01 "HgN/A
10:30 AM77 °FPassing clouds.3 mph30%30.04 "HgN/A
10:00 AM79 °FPassing clouds.3 mph28%30.04 "HgN/A
9:30 AM77 °FPassing clouds.3 mph28%30.04 "HgN/A
9:00 AM77 °FSunny.1 mph30%30.04 "Hg10 mi
8:30 AM77 °FSunny.1 mph32%30.04 "Hg10 mi
8:00 AM73 °FSunny.1 mph44%30.04 "Hg10 mi
7:30 AM70 °FSunny.No wind53%30.04 "Hg10 mi
6:30 AM64 °FClear.1 mph60%30.04 "Hg10 mi
6:00 AM64 °FClear.1 mph60%30.04 "Hg10 mi
5:30 AM64 °FClear.3 mph52%30.01 "HgN/A
5:00 AM66 °FClear.3 mph52%30.01 "HgN/A
4:30 AM66 °FClear.3 mph49%30.01 "HgN/A
4:00 AM68 °FClear.1 mph46%30.01 "HgN/A
3:30 AM66 °FClear.1 mph52%30.01 "HgN/A
3:00 AM66 °FClear.3 mph64%30.01 "HgN/A
Weather by CustomWeather, © 2015

See weather overviewHow to use our weather pages